METEOR 2-1

Satellite information

Favourite Embed

Satellite Type and Status

PAYLOADIN ORBIT

Key statistics

Satellite METEOR 2-1 at a glance.

Uptime

18313

Days in orbit

Revolutions

≈ 14.1

Per day

Orbit

LEO

Low Earth Orbit

Inclination

81.3

Latest

Satellite identification and parameters

Extended collection of information and parameters for METEOR 2-1.

Object identification

Identified? True

Debris? False

Object name: METEOR 2-1

International designator: 1975-064A

Object number (NORAD): 8026

Object ID (CCSDS): 8026

Country: COMMONWEALTH OF INDEPENDENT STATES (CIS)

Current information (Y/N): Y

RCS size: LARGE

Orbital parameters

Period: 102.074 minutes

Inclination: 81.2801 deg

SMA: 7234.951 km

Apoapsis: 872.052 km

Periapsis: 841.581 km

RAAN: 306.1969 deg

Eccentricy: 0.00210579

Argument of periapsis: 329.9248 deg

Mean anomaly: 30.0712 deg

Mean motion: 14.10747637 rev/day

Mean motion (dot): 0.00000211 rev/day2

B* drag term: 0.00011060951 1/REarth

Two-line elements (TLE)

Creation date: Aug. 30, 2025, 3:38 a.m.

Reference frame: TEME

Reference center: EARTH

Epoch: Aug. 29, 2025, 4:57 p.m. UTC

TLE line 0: 0 METEOR 2-1

TLE line 1: 1 08026U 75064A 25241.70669284 .00000211 00000-0 11061-3 0 9990

TLE line 2: 2 08026 81.2801 306.1969 0021058 329.9248 30.0712 14.10747637578244

Live tracking on map

Real-time ground track for satellite METEOR 2-1.

In-orbit conjunctions

A list of the most updated potential collisions computed for object METEOR 2-1.

Target Orbit TCA Probability of collision Miss distance Type
FENGYUN 1C DEB SSO 2025-06-04 15:48:41 0.0008423349 208.0 (m) DEBRIS
THORAD AGENA D DEB SSO 2025-04-24 03:58:19 0.000409661 488.0 (m) DEBRIS
CZ-6A DEB LEO 2025-02-02 00:00:06 0.0001812863 809.0 (m) DEBRIS
FENGYUN 1C DEB SSO 2024-12-23 18:37:12 0.0008762966 164.0 (m) DEBRIS
CZ-6A DEB SSO 2024-08-14 00:37:20 0.000428855 414.0 (m) DEBRIS

Associated space launch

Second generation soviet meteorological satellite

METEOR 2-1 was lifted into orbit during the mission ‘Vostok 8A92M | Meteor-2 1’, on board a Vostok 8A92M space rocket.

The launch took place on July 11, 1975, 4:15 a.m. from 41/1.

For more information about the launch, click the button.

Launch to space Vostok 8A92M | Meteor-2 1
Vostok 8A92M | Meteor-2 1

Agency: N/A

Status: Launch Successful

Launch date: July 11, 1975, 4:15 a.m. UTC

Rocket: Vostok 8A92M

Launch pad: 41/1

Location: Plesetsk Cosmodrome, Russian Federation

...

Latest news about this satellite

There are no fresh news available about this satellite. Check back as we update our databases every day.


Newsletter sign-up

Weekly statistics, charts and insights to help you stay on top of the space industry.